Вернуться в каталог

COSMOS 2251 DEB

АктивенLEO
NORAD 34924·DEBRIS·🇷🇺 Russia

Запущен Jun 16, 1993 с Plesetsk Cosmodrome

Loading…

Ближайшие Пролёты (ближайшие 24 часа)

TLE

СвежийSource: Space-Track

Эпоха: Sep 14, 2026, 11:04 UTC

1 34924U 93036ADV 26257.46170319  .00002023  00000-0  40193-3 0  9993
2 34924  74.0369 282.4732 0056421 295.1567 133.2077 14.61858671917506

Отслеживайте COSMOS 2251 DEB в реальном времени с AllMySat

Download on the App Store